| time (UTC) | temp F | wind direction | speed MPH | gust MPH | rain 1hr in | rain 24hr in | rain mn in | humidity % | barometer mb |
| 20260831145343 | 72 | 181 | 0.0 | 4.0 | 0.00 | 0.30 | 0.00 | 92 | 1016.9 |
| 20260831144334 | 72 | 226 | 0.0 | 2.0 | 0.00 | 0.32 | 0.00 | 92 | 1016.7 |
| 20260831143332 | 72 | 211 | 0.0 | 5.0 | 0.00 | 0.34 | 0.00 | 93 | 1016.5 |
| 20260831142332 | 71 | 192 | 0.0 | 4.0 | 0.00 | 0.36 | 0.00 | 93 | 1016.5 |
| 20260831141333 | 71 | 192 | 0.0 | 4.0 | 0.00 | 0.40 | 0.00 | 93 | 1016.6 |
| 20260831140334 | 71 | 148 | 0.0 | 0.0 | 0.00 | 0.44 | 0.00 | 93 | 1016.6 |
| 20260831135330 | 71 | 198 | 0.0 | 0.0 | 0.00 | 0.50 | 0.00 | 93 | 1016.5 |
| 20260831134333 | 70 | 198 | 0.0 | 0.0 | 0.00 | 0.55 | 0.00 | 93 | 1016.5 |
| 20260831133330 | 70 | 198 | 0.0 | 0.0 | 0.00 | 0.60 | 0.00 | 93 | 1016.3 |
| 20260831132331 | 70 | 198 | 0.0 | 0.0 | 0.00 | 0.66 | 0.00 | 93 | 1016.4 |
| 20260831131326 | 70 | 198 | 0.0 | 0.0 | 0.00 | 0.73 | 0.00 | 93 | 1016.5 |
| 20260831130327 | 70 | 198 | 0.0 | 0.0 | 0.00 | 0.78 | 0.00 | 93 | 1016.3 |
| 20260831125326 | 70 | 192 | 0.0 | 2.0 | 0.00 | 0.82 | 0.00 | 93 | 1016.1 |
| 20260831124326 | 70 | 188 | 0.0 | 4.0 | 0.00 | 0.84 | 0.00 | 93 | 1016.2 |
| 20260831123325 | 69 | 180 | 0.0 | 0.0 | 0.00 | 0.87 | 0.00 | 93 | 1016.2 |
| 20260831122326 | 69 | 180 | 0.0 | 0.0 | 0.00 | 0.90 | 0.00 | 93 | 1016.2 |
| 20260831121325 | 69 | 180 | 0.0 | 0.0 | 0.00 | 0.93 | 0.00 | 93 | 1016.2 |
| 20260831120326 | 69 | 180 | 0.0 | 0.0 | 0.00 | 0.95 | 0.00 | 93 | 1016.2 |
| 20260831115326 | 69 | 180 | 0.0 | 0.0 | 0.00 | 0.96 | 0.00 | 92 | 1016.2 |
| 20260831114323 | 69 | 180 | 0.0 | 0.0 | 0.00 | 0.96 | 0.00 | 92 | 1016.3 |
| 20260831113322 | 69 | 180 | 0.0 | 0.0 | 0.00 | 0.96 | 0.00 | 92 | 1016.4 |
| 20260831112322 | 69 | 180 | 0.0 | 0.0 | 0.00 | 0.97 | 0.00 | 92 | 1016.4 |
| 20260831111322 | 69 | 180 | 0.0 | 0.0 | 0.00 | 0.97 | 0.00 | 92 | 1016.4 |
| 20260831110323 | 69 | 180 | 0.0 | 0.0 | 0.00 | 0.97 | 0.00 | 92 | 1016.5 |
| 20260831105321 | 69 | 180 | 0.0 | 0.0 | 0.00 | 0.97 | 0.00 | 92 | 1016.4 |
| 20260831104324 | 69 | 180 | 0.0 | 0.0 | 0.00 | 0.97 | 0.00 | 92 | 1016.3 |
| 20260831103325 | 69 | 180 | 0.0 | 0.0 | 0.00 | 0.97 | 0.00 | 92 | 1016.3 |
| 20260831102323 | 69 | 180 | 0.0 | 0.0 | 0.00 | 0.97 | 0.00 | 92 | 1016.2 |
| 20260831101326 | 69 | 180 | 0.0 | 0.0 | 0.00 | 0.97 | 0.00 | 92 | 1016.2 |
| 20260831100323 | 69 | 180 | 0.0 | 2.0 | 0.00 | 0.97 | 0.00 | 92 | 1016.2 |
| 20260831095320 | 69 | 180 | 0.0 | 0.0 | 0.00 | 0.97 | 0.00 | 92 | 1016.1 |
| 20260831094321 | 69 | 180 | 0.0 | 0.0 | 0.00 | 0.98 | 0.00 | 92 | 1016.0 |
| 20260831093315 | 69 | 180 | 0.0 | 0.0 | 0.00 | 0.99 | 0.00 | 92 | 1016.2 |
| 20260831092316 | 69 | 180 | 0.0 | 0.0 | 0.00 | 0.99 | 0.00 | 92 | 1016.1 |
| 20260831091316 | 69 | 180 | 0.0 | 0.0 | 0.00 | 0.99 | 0.00 | 92 | 1016.2 |
| 20260831090316 | 69 | 180 | 0.0 | 2.0 | 0.00 | 0.99 | 0.00 | 92 | 1016.2 |
| 20260831085317 | 69 | 180 | 0.0 | 4.0 | 0.00 | 0.99 | 0.00 | 91 | 1016.2 |
| 20260831084314 | 69 | 184 | 0.0 | 4.0 | 0.00 | 1.00 | 0.00 | 91 | 1016.1 |
| 20260831083319 | 69 | 180 | 0.0 | 2.0 | 0.00 | 1.01 | 0.00 | 91 | 1016.2 |
| 20260831082316 | 69 | 180 | 0.0 | 0.0 | 0.00 | 1.01 | 0.00 | 90 | 1015.9 |
| 20260831081318 | 69 | 180 | 0.0 | 0.0 | 0.00 | 1.01 | 0.00 | 90 | 1015.9 |
| 20260831080313 | 69 | 180 | 0.0 | 0.0 | 0.00 | 1.01 | 0.00 | 90 | 1015.9 |
| 20260831075315 | 69 | 180 | 0.0 | 0.0 | 0.00 | 1.01 | 0.00 | 90 | 1016.1 |
| 20260831074313 | 69 | 180 | 0.0 | 0.0 | 0.00 | 1.01 | 0.00 | 90 | 1016.0 |
| 20260831073323 | 69 | 180 | 0.0 | 0.0 | 0.00 | 1.01 | 0.00 | 90 | 1016.1 |
| 20260831072319 | 69 | 180 | 0.0 | 2.0 | 0.00 | 1.01 | 0.00 | 89 | 1016.1 |
| 20260831071312 | 70 | 180 | 0.0 | 2.0 | 0.00 | 1.01 | 0.00 | 89 | 1016.1 |
| 20260831070312 | 70 | 180 | 0.0 | 0.0 | 0.00 | 1.01 | 0.00 | 89 | 1016.3 |
| 20260831065310 | 70 | 180 | 0.0 | 0.0 | 0.00 | 1.01 | 0.00 | 89 | 1016.4 |
| 20260831064809 | 70 | 180 | 0.0 | 0.0 | 0.00 | 1.01 | 0.00 | 89 | 1016.5 |
| 20260831063308 | 70 | 180 | 0.0 | 2.0 | 0.00 | 1.01 | 0.00 | 89 | 1016.5 |
| 20260831062308 | 70 | 180 | 0.0 | 2.0 | 0.00 | 1.01 | 0.00 | 89 | 1016.5 |
| 20260831061311 | 70 | 180 | 0.0 | 2.0 | 0.00 | 1.01 | 0.00 | 89 | 1016.5 |
| 20260831060311 | 70 | 180 | 0.0 | 0.0 | 0.00 | 1.01 | 0.00 | 89 | 1016.6 |
| 20260831055308 | 70 | 180 | 0.0 | 2.0 | 0.00 | 1.01 | 0.00 | 89 | 1016.6 |
| 20260831054309 | 70 | 180 | 0.0 | 5.0 | 0.00 | 1.01 | 0.00 | 89 | 1016.6 |
| 20260831053311 | 70 | 185 | 0.0 | 4.0 | 0.00 | 1.01 | 0.00 | 89 | 1016.7 |
| 20260831052307 | 70 | 184 | 0.0 | 7.0 | 0.00 | 1.01 | 0.00 | 90 | 1016.6 |
| 20260831051308 | 70 | 188 | 2.0 | 5.0 | 0.00 | 1.01 | 0.00 | 90 | 1016.7 |
| 20260831050307 | 70 | 188 | 2.0 | 4.0 | 0.00 | 1.01 | 0.00 | 90 | 1016.8 |
| 20260831045306 | 70 | 188 | 2.0 | 7.0 | 0.00 | 1.01 | 0.00 | 90 | 1016.8 |
| 20260831044309 | 70 | 184 | 2.0 | 7.0 | 0.00 | 1.01 | 0.00 | 91 | 1016.8 |
| 20260831043306 | 70 | 182 | 4.0 | 9.0 | 0.00 | 1.01 | 0.00 | 91 | 1016.8 |
| 20260831042309 | 70 | 163 | 4.0 | 11.0 | 0.00 | 1.01 | 0.00 | 91 | 1016.7 |
| 20260831041309 | 70 | 175 | 2.0 | 7.0 | 0.00 | 1.01 | 0.00 | 91 | 1016.7 |
| 20260831040308 | 70 | 169 | 4.0 | 11.0 | 0.00 | 1.01 | 0.00 | 91 | 1016.8 |
| 20260831035307 | 69 | 188 | 4.0 | 9.0 | 0.00 | 1.01 | 1.01 | 92 | 1016.9 |
| 20260831034310 | 69 | 188 | 4.0 | 12.0 | 0.00 | 1.01 | 1.01 | 92 | 1016.9 |
| 20260831033306 | 69 | 193 | 2.0 | 7.0 | 0.00 | 1.01 | 1.01 | 91 | 1016.9 |
| 20260831032310 | 69 | 198 | 2.0 | 5.0 | 0.00 | 1.01 | 1.01 | 92 | 1016.8 |
| 20260831031301 | 69 | 190 | 2.0 | 7.0 | 0.00 | 1.01 | 1.01 | 92 | 1016.8 |
| 20260831030303 | 69 | 192 | 0.0 | 5.0 | 0.00 | 1.01 | 1.01 | 92 | 1016.8 |
| 20260831025300 | 69 | 174 | 2.0 | 4.0 | 0.00 | 1.01 | 1.01 | 92 | 1016.8 |
| 20260831024302 | 69 | 196 | 0.0 | 4.0 | 0.00 | 1.01 | 1.01 | 92 | 1016.8 |
| 20260831023303 | 69 | 192 | 0.0 | 4.0 | 0.00 | 1.01 | 1.01 | 92 | 1016.7 |
| 20260831022300 | 69 | 175 | 0.0 | 4.0 | 0.00 | 1.01 | 1.01 | 92 | 1016.7 |
| 20260831021300 | 69 | 210 | 0.0 | 4.0 | 0.00 | 1.01 | 1.01 | 92 | 1016.7 |
| 20260831020304 | 69 | 202 | 2.0 | 4.0 | 0.00 | 1.01 | 1.01 | 92 | 1016.6 |
| 20260831015313 | 69 | 176 | 0.0 | 5.0 | 0.00 | 1.01 | 1.01 | 92 | 1016.6 |
| 20260831014258 | 69 | 188 | 2.0 | 5.0 | 0.00 | 1.01 | 1.01 | 92 | 1016.5 |
| 20260831013255 | 69 | 190 | 0.0 | 0.0 | 0.00 | 1.01 | 1.01 | 92 | 1016.5 |
| 20260831012258 | 69 | 142 | 0.0 | 0.0 | 0.00 | 1.01 | 1.01 | 92 | 1016.5 |
| 20260831011256 | 69 | 146 | 2.0 | 5.0 | 0.00 | 1.01 | 1.01 | 92 | 1016.5 |
| 20260831010256 | 69 | 142 | 2.0 | 5.0 | 0.00 | 1.01 | 1.01 | 92 | 1016.4 |
| 20260831005253 | 70 | 157 | 2.0 | 7.0 | 0.00 | 1.01 | 1.01 | 92 | 1016.4 |
| 20260831004253 | 70 | 160 | 2.0 | 5.0 | 0.00 | 1.01 | 1.01 | 92 | 1016.3 |
| 20260831003256 | 70 | 140 | 2.0 | 5.0 | 0.00 | 1.01 | 1.01 | 92 | 1016.2 |
| 20260831002257 | 70 | 145 | 2.0 | 4.0 | 0.00 | 1.01 | 1.01 | 92 | 1016.4 |
| 20260831001249 | 70 | 190 | 2.0 | 5.0 | 0.00 | 1.01 | 1.01 | 92 | 1016.3 |
| 20260831000251 | 70 | 155 | 2.0 | 5.0 | 0.00 | 1.01 | 1.01 | 92 | 1016.2 |
| 20260830235249 | 70 | 148 | 4.0 | 7.0 | 0.00 | 1.01 | 1.01 | 91 | 1016.2 |
| 20260830234250 | 70 | 136 | 2.0 | 7.0 | 0.00 | 1.01 | 1.01 | 91 | 1016.4 |
| 20260830233247 | 70 | 158 | 4.0 | 11.0 | 0.00 | 1.01 | 1.01 | 91 | 1016.4 |
| 20260830232247 | 70 | 140 | 4.0 | 9.0 | 0.00 | 1.01 | 1.01 | 91 | 1016.4 |
| 20260830231246 | 70 | 142 | 2.0 | 5.0 | 0.00 | 1.01 | 1.01 | 90 | 1016.5 |
| 20260830230243 | 70 | 146 | 4.0 | 7.0 | 0.00 | 1.01 | 1.01 | 90 | 1016.7 |
| 20260830225241 | 70 | 156 | 2.0 | 7.0 | 0.00 | 1.01 | 1.01 | 90 | 1016.9 |
| 20260830224242 | 70 | 207 | 0.0 | 0.0 | 0.00 | 1.01 | 1.01 | 90 | 1017.0 |
| 20260830223240 | 70 | 207 | 0.0 | 2.0 | 0.00 | 1.01 | 1.01 | 90 | 1017.1 |
| 20260830222243 | 70 | 207 | 2.0 | 5.0 | 0.00 | 1.01 | 1.01 | 90 | 1017.0 |
| 20260830221242 | 70 | 164 | 2.0 | 7.0 | 0.00 | 1.01 | 1.01 | 90 | 1017.2 |
| 20260830220243 | 70 | 171 | 2.0 | 5.0 | 0.00 | 1.01 | 1.01 | 91 | 1017.0 |
| 20260830215245 | 70 | 153 | 0.0 | 0.0 | 0.00 | 1.01 | 1.01 | 91 | 1016.9 |
| 20260830214247 | 70 | 159 | 0.0 | 4.0 | 0.00 | 1.01 | 1.01 | 92 | 1016.8 |
| 20260830213241 | 70 | 198 | 4.0 | 7.0 | 0.00 | 1.01 | 1.01 | 92 | 1017.1 |
| 20260830212242 | 70 | 149 | 2.0 | 5.0 | 0.00 | 1.01 | 1.01 | 92 | 1016.9 |
| 20260830211236 | 70 | 153 | 2.0 | 9.0 | 0.00 | 1.01 | 1.01 | 92 | 1016.8 |
| 20260830210238 | 70 | 188 | 4.0 | 7.0 | 0.00 | 1.01 | 1.01 | 92 | 1016.6 |
| 20260830205238 | 70 | 188 | 0.0 | 7.0 | 0.00 | 1.01 | 1.01 | 93 | 1016.6 |
| 20260830204235 | 70 | 141 | 2.0 | 4.0 | 0.00 | 1.01 | 1.01 | 92 | 1016.6 |
| 20260830203235 | 70 | 141 | 2.0 | 9.0 | 0.00 | 1.01 | 1.01 | 92 | 1016.5 |
| 20260830202235 | 70 | 169 | 4.0 | 9.0 | 0.00 | 1.01 | 1.01 | 93 | 1016.5 |
| 20260830201232 | 70 | 186 | 2.0 | 7.0 | 0.00 | 1.01 | 1.01 | 93 | 1016.7 |
| 20260830200230 | 69 | 143 | 2.0 | 5.0 | 0.00 | 1.01 | 1.01 | 93 | 1016.7 |
| 20260830195233 | 69 | 154 | 2.0 | 5.0 | 0.00 | 1.01 | 1.01 | 94 | 1016.7 |
| 20260830194226 | 69 | 186 | 2.0 | 7.0 | 0.00 | 1.01 | 1.01 | 94 | 1016.8 |
| 20260830193226 | 69 | 142 | 4.0 | 7.0 | 0.00 | 1.01 | 1.01 | 94 | 1016.6 |
| 20260830192224 | 69 | 153 | 2.0 | 5.0 | 0.00 | 1.01 | 1.01 | 95 | 1016.8 |
| 20260830191223 | 69 | 157 | 2.0 | 7.0 | 0.00 | 1.01 | 1.01 | 95 | 1016.7 |
| 20260830190222 | 69 | 146 | 0.0 | 0.0 | 0.00 | 1.01 | 1.01 | 96 | 1017.0 |
| 20260830185228 | 68 | 159 | 0.0 | 4.0 | 0.00 | 1.01 | 1.01 | 95 | 1016.9 |
| 20260830184224 | 68 | 159 | 2.0 | 4.0 | 0.00 | 1.01 | 1.01 | 95 | 1017.2 |
| 20260830183222 | 68 | 159 | 0.0 | 0.0 | 0.00 | 1.01 | 1.01 | 95 | 1017.5 |
| 20260830182233 | 68 | 159 | 0.0 | 4.0 | 0.00 | 1.01 | 1.01 | 95 | 1017.4 |
| 20260830181227 | 67 | 159 | 0.0 | 4.0 | 0.00 | 1.01 | 1.01 | 95 | 1017.2 |
| 20260830180218 | 67 | 159 | 2.0 | 7.0 | 0.01 | 1.01 | 1.01 | 95 | 1017.1 |
| 20260830175216 | 67 | 170 | 4.0 | 9.0 | 0.01 | 1.01 | 1.01 | 95 | 1017.2 |
| 20260830173216 | 67 | 170 | 2.0 | 7.0 | 0.02 | 1.01 | 1.01 | 95 | 1017.3 |
| 20260830172219 | 67 | 149 | 4.0 | 5.0 | 0.03 | 1.01 | 1.01 | 95 | 1017.2 |
| 20260830171219 | 67 | 200 | 4.0 | 9.0 | 0.07 | 1.01 | 1.01 | 96 | 1017.1 |
| 20260830170218 | 66 | 146 | 2.0 | 5.0 | 0.15 | 1.00 | 1.00 | 96 | 1017.6 |
| 20260830165219 | 66 | 176 | 2.0 | 9.0 | 0.17 | 1.00 | 1.00 | 95 | 1018.1 |
| 20260830164214 | 66 | 162 | 4.0 | 9.0 | 0.20 | 1.00 | 1.00 | 95 | 1017.9 |
| 20260830163211 | 66 | 198 | 4.0 | 12.0 | 0.22 | 0.99 | 0.99 | 95 | 1018.1 |
| 20260830162210 | 66 | 192 | 5.0 | 12.0 | 0.22 | 0.98 | 0.98 | 95 | 1018.0 |
| 20260830161210 | 66 | 194 | 5.0 | 12.0 | 0.19 | 0.94 | 0.94 | 95 | 1018.3 |
| 20260830160214 | 66 | 174 | 4.0 | 12.0 | 0.13 | 0.85 | 0.85 | 95 | 1018.9 |
| 20260830155212 | 66 | 186 | 2.0 | 9.0 | 0.12 | 0.83 | 0.83 | 95 | 1019.1 |
| 20260830154212 | 66 | 167 | 4.0 | 7.0 | 0.11 | 0.80 | 0.80 | 95 | 1018.7 |
| 20260830153212 | 66 | 211 | 4.0 | 7.0 | 0.10 | 0.77 | 0.78 | 95 | 1018.8 |
| 20260830152208 | 66 | 209 | 4.0 | 9.0 | 0.11 | 0.76 | 0.76 | 95 | 1019.1 |
| 20260830151209 | 66 | 202 | 2.0 | 7.0 | 0.14 | 0.75 | 0.75 | 95 | 1019.3 |